Time,TemperatureF,DewpointF,PressureIn,WindDirection,WindDirectionDegrees,WindSpeedMPH,WindSpeedGustMPH,Humidity,HourlyPrecipIn,Conditions,Clouds,dailyrainin,SoftwareType,DateUTC
2013-11-06 00:03:00,61.8,60.4,29.93,NNE,20,1.0,1.0,95,0.17,,---,0.17,VWS V14.00,2013-11-06 06:03:00,
2013-11-06 00:08:00,61.2,59.8,29.93,SW,228,1.0,9.0,95,0.18,,---,0.18,VWS V14.00,2013-11-06 06:08:00,
2013-11-06 00:14:00,60.8,59.7,29.92,North,5,1.0,7.0,96,0.19,,---,0.19,VWS V14.00,2013-11-06 06:14:00,
2013-11-06 00:19:00,60.6,59.5,29.92,North,357,0.0,0.0,96,0.21,,---,0.21,VWS V14.00,2013-11-06 06:19:00,
2013-11-06 00:24:00,60.3,59.2,29.92,North,359,0.0,0.0,96,0.23,,---,0.23,VWS V14.00,2013-11-06 06:24:00,
2013-11-06 00:29:00,59.6,58.5,29.92,NE,35,0.0,1.0,96,0.24,,---,0.24,VWS V14.00,2013-11-06 06:29:00,
2013-11-06 00:34:00,58.8,57.7,29.92,NW,309,4.0,4.0,96,0.24,,---,0.24,VWS V14.00,2013-11-06 06:34:00,
2013-11-06 00:39:00,57.8,56.7,29.92,WNW,288,2.0,4.0,96,0.24,,---,0.24,VWS V14.00,2013-11-06 06:39:00,
2013-11-06 00:45:00,56.5,55.4,29.93,West,276,6.0,9.0,96,0.24,,---,0.24,VWS V14.00,2013-11-06 06:45:00,
2013-11-06 00:50:00,55.3,53.9,29.93,NNW,330,0.0,9.0,95,0.20,,---,0.24,VWS V14.00,2013-11-06 06:50:00,
2013-11-06 00:55:00,54.3,52.9,29.93,WNW,293,2.0,9.0,95,0.20,,---,0.25,VWS V14.00,2013-11-06 06:55:00,
2013-11-06 01:01:00,53.5,52.4,29.95,NNW,344,1.0,7.0,96,0.13,,---,0.27,VWS V14.00,2013-11-06 07:01:00,
2013-11-06 01:06:00,52.8,51.4,29.95,NE,45,9.0,14.0,95,0.12,,---,0.30,VWS V14.00,2013-11-06 07:06:00,
2013-11-06 01:11:00,52.1,51.0,29.95,NW,324,3.0,6.0,96,0.13,,---,0.31,VWS V14.00,2013-11-06 07:11:00,
2013-11-06 01:16:00,51.8,50.7,29.97,West,262,0.0,10.0,96,0.12,,---,0.32,VWS V14.00,2013-11-06 07:16:00,
2013-11-06 01:21:00,51.7,50.6,29.97,North,1,1.0,9.0,96,0.10,,---,0.32,VWS V14.00,2013-11-06 07:21:00,
2013-11-06 01:26:00,51.6,50.5,29.97,NNE,29,4.0,9.0,96,0.09,,---,0.32,VWS V14.00,2013-11-06 07:26:00,
2013-11-06 01:32:00,51.5,50.4,29.97,NNE,26,0.0,4.0,96,0.08,,---,0.32,VWS V14.00,2013-11-06 07:32:00,
2013-11-06 01:38:00,51.5,50.4,29.97,North,352,0.0,0.0,96,0.08,,---,0.32,VWS V14.00,2013-11-06 07:38:00,
2013-11-06 01:44:00,51.5,50.4,29.97,NNE,29,4.0,5.0,96,0.08,,---,0.32,VWS V14.00,2013-11-06 07:44:00,
2013-11-06 01:49:00,51.3,50.2,29.97,NNE,20,4.0,5.0,96,0.08,,---,0.32,VWS V14.00,2013-11-06 07:49:00,
2013-11-06 01:54:00,51.3,50.2,29.97,NNW,348,1.0,4.0,96,0.08,,---,0.33,VWS V14.00,2013-11-06 07:54:00,
2013-11-06 01:59:00,51.2,50.1,29.98,NNW,334,0.0,6.0,96,0.07,,---,0.33,VWS V14.00,2013-11-06 07:59:00,
2013-11-06 02:04:00,50.8,49.7,29.98,NNE,26,1.0,3.0,96,0.05,,---,0.33,VWS V14.00,2013-11-06 08:04:00,
2013-11-06 02:09:00,50.5,49.4,29.98,NE,36,2.0,7.0,96,0.02,,---,0.33,VWS V14.00,2013-11-06 08:09:00,
2013-11-06 02:14:00,50.3,49.2,29.98,NNE,20,0.0,4.0,96,0.01,,---,0.33,VWS V14.00,2013-11-06 08:14:00,
2013-11-06 02:19:00,50.2,49.1,29.98,North,2,1.0,10.0,96,0.01,,---,0.33,VWS V14.00,2013-11-06 08:19:00,
2013-11-06 02:24:00,49.9,48.8,29.98,NE,35,2.0,2.0,96,0.01,,---,0.33,VWS V14.00,2013-11-06 08:24:00,
2013-11-06 02:29:00,49.4,48.0,30.00,NNE,30,3.0,11.0,95,0.01,,---,0.33,VWS V14.00,2013-11-06 08:29:00,
2013-11-06 02:34:00,49.0,47.6,30.00,NE,48,3.0,5.0,95,0.02,,---,0.34,VWS V14.00,2013-11-06 08:34:00,
2013-11-06 02:39:00,48.6,47.2,30.00,NE,39,4.0,4.0,95,0.02,,---,0.34,VWS V14.00,2013-11-06 08:39:00,
2013-11-06 02:44:00,48.5,47.1,30.00,NE,43,1.0,2.0,95,0.03,,---,0.35,VWS V14.00,2013-11-06 08:44:00,
2013-11-06 02:49:00,48.4,47.3,30.00,WSW,258,1.0,11.0,96,0.03,,---,0.35,VWS V14.00,2013-11-06 08:49:00,
2013-11-06 02:54:00,48.4,47.3,30.00,NNE,23,0.0,4.0,96,0.03,,---,0.36,VWS V14.00,2013-11-06 08:54:00,
2013-11-06 02:59:00,48.0,46.9,30.02,West,273,2.0,6.0,96,0.04,,---,0.37,VWS V14.00,2013-11-06 08:59:00,
2013-11-06 03:04:00,47.5,46.1,30.02,North,356,0.0,2.0,95,0.04,,---,0.37,VWS V14.00,2013-11-06 09:04:00,
2013-11-06 03:09:00,47.2,46.1,30.02,NNW,335,2.0,10.0,96,0.04,,---,0.37,VWS V14.00,2013-11-06 09:09:00,
2013-11-06 03:14:00,46.9,45.8,30.04,NW,324,0.0,2.0,96,0.04,,---,0.37,VWS V14.00,2013-11-06 09:14:00,
2013-11-06 03:19:00,46.7,45.6,30.04,NE,40,0.0,6.0,96,0.04,,---,0.37,VWS V14.00,2013-11-06 09:19:00,
2013-11-06 03:24:00,46.3,45.0,30.04,ENE,77,0.0,15.0,95,0.04,,---,0.37,VWS V14.00,2013-11-06 09:24:00,
2013-11-06 03:29:00,46.1,44.8,30.03,NNE,21,5.0,10.0,95,0.04,,---,0.37,VWS V14.00,2013-11-06 09:29:00,
2013-11-06 03:34:00,46.0,44.7,30.03,NE,35,4.0,4.0,95,0.04,,---,0.37,VWS V14.00,2013-11-06 09:34:00,
2013-11-06 03:39:00,45.9,44.5,30.03,NE,51,10.0,10.0,95,0.03,,---,0.37,VWS V14.00,2013-11-06 09:39:00,
2013-11-06 03:44:00,45.8,44.5,30.04,NNE,30,7.0,13.0,95,0.03,,---,0.37,VWS V14.00,2013-11-06 09:44:00,
2013-11-06 03:49:00,45.7,44.3,30.04,NE,41,8.0,8.0,95,0.02,,---,0.37,VWS V14.00,2013-11-06 09:49:00,
2013-11-06 03:55:00,45.5,43.9,30.04,NE,41,2.0,9.0,94,0.01,,---,0.37,VWS V14.00,2013-11-06 09:55:00,
2013-11-06 04:00:00,45.2,43.6,30.05,NE,38,4.0,8.0,94,0.00,,---,0.37,VWS V14.00,2013-11-06 10:00:00,
2013-11-06 04:05:00,45.0,43.4,30.05,NE,51,5.0,10.0,94,0.00,,---,0.37,VWS V14.00,2013-11-06 10:05:00,
2013-11-06 04:10:00,44.9,43.3,30.05,NE,51,14.0,14.0,94,0.00,,---,0.37,VWS V14.00,2013-11-06 10:10:00,
2013-11-06 04:15:00,44.8,42.9,30.06,NE,46,3.0,10.0,93,0.00,,---,0.37,VWS V14.00,2013-11-06 10:15:00,
2013-11-06 04:20:00,44.8,42.9,30.06,NNE,28,4.0,6.0,93,0.00,,---,0.37,VWS V14.00,2013-11-06 10:20:00,
2013-11-06 04:25:00,44.8,42.9,30.06,NE,38,4.0,7.0,93,0.00,,---,0.37,VWS V14.00,2013-11-06 10:25:00,
2013-11-06 04:30:00,44.8,42.9,30.07,NNE,17,5.0,9.0,93,0.00,,---,0.37,VWS V14.00,2013-11-06 10:30:00,
2013-11-06 04:36:00,44.7,42.8,30.07,NE,44,4.0,7.0,93,0.00,,---,0.37,VWS V14.00,2013-11-06 10:36:00,
2013-11-06 04:41:00,44.5,42.6,30.07,NE,42,1.0,6.0,93,0.00,,---,0.37,VWS V14.00,2013-11-06 10:41:00,
2013-11-06 04:46:00,44.4,42.5,30.08,NE,45,0.0,4.0,93,0.00,,---,0.37,VWS V14.00,2013-11-06 10:46:00,
2013-11-06 04:51:00,44.3,42.4,30.08,NNE,30,5.0,10.0,93,0.00,,---,0.37,VWS V14.00,2013-11-06 10:51:00,
2013-11-06 04:56:00,44.3,42.4,30.08,North,8,3.0,9.0,93,0.00,,---,0.37,VWS V14.00,2013-11-06 10:56:00,
2013-11-06 05:01:00,44.2,42.3,30.08,NE,41,6.0,12.0,93,0.00,,---,0.37,VWS V14.00,2013-11-06 11:01:00,
2013-11-06 05:06:00,44.1,42.2,30.08,NE,51,2.0,6.0,93,0.00,,---,0.37,VWS V14.00,2013-11-06 11:06:00,
2013-11-06 05:12:00,44.0,41.8,30.08,NE,36,7.0,8.0,92,0.00,,---,0.37,VWS V14.00,2013-11-06 11:12:00,
2013-11-06 05:17:00,43.8,41.6,30.08,NNE,19,8.0,11.0,92,0.00,,---,0.37,VWS V14.00,2013-11-06 11:17:00,
2013-11-06 05:22:00,43.7,41.2,30.08,NNE,28,10.0,10.0,91,0.00,,---,0.37,VWS V14.00,2013-11-06 11:22:00,
2013-11-06 05:27:00,43.5,41.0,30.08,NNE,18,4.0,6.0,91,0.00,,---,0.37,VWS V14.00,2013-11-06 11:27:00,
2013-11-06 05:32:00,43.4,41.0,30.09,NNE,24,6.0,9.0,91,0.00,,---,0.37,VWS V14.00,2013-11-06 11:32:00,
2013-11-06 05:37:00,43.2,40.5,30.09,NNE,18,8.0,8.0,90,0.00,,---,0.37,VWS V14.00,2013-11-06 11:37:00,
2013-11-06 05:42:00,43.0,40.3,30.09,NNE,23,4.0,9.0,90,0.00,,---,0.37,VWS V14.00,2013-11-06 11:42:00,
2013-11-06 05:47:00,42.9,40.2,30.10,ENE,59,6.0,9.0,90,0.00,,---,0.37,VWS V14.00,2013-11-06 11:47:00,
2013-11-06 05:52:00,42.8,40.1,30.10,ENE,66,3.0,9.0,90,0.00,,---,0.37,VWS V14.00,2013-11-06 11:52:00,
2013-11-06 05:57:00,42.8,39.8,30.10,North,0,5.0,13.0,89,0.00,,---,0.37,VWS V14.00,2013-11-06 11:57:00,
2013-11-06 06:02:00,42.8,39.8,30.10,NNE,18,3.0,10.0,89,0.00,,---,0.37,VWS V14.00,2013-11-06 12:02:00,
2013-11-06 06:08:00,42.8,39.8,30.10,North,5,3.0,7.0,89,0.00,,---,0.37,VWS V14.00,2013-11-06 12:08:00,
2013-11-06 06:13:00,42.8,39.8,30.12,NNE,20,2.0,4.0,89,0.00,,---,0.37,VWS V14.00,2013-11-06 12:13:00,
2013-11-06 06:18:00,42.7,39.4,30.12,NE,50,0.0,4.0,88,0.00,,---,0.37,VWS V14.00,2013-11-06 12:18:00,
2013-11-06 06:23:00,42.6,39.3,30.12,NE,35,2.0,9.0,88,0.00,,---,0.37,VWS V14.00,2013-11-06 12:23:00,
2013-11-06 06:28:00,42.6,39.6,30.12,NNE,24,5.0,6.0,89,0.00,,---,0.37,VWS V14.00,2013-11-06 12:28:00,
2013-11-06 06:33:00,42.6,39.6,30.12,NNE,29,5.0,9.0,89,0.00,,---,0.37,VWS V14.00,2013-11-06 12:33:00,
2013-11-06 06:38:00,42.5,39.5,30.12,NE,50,4.0,6.0,89,0.00,,---,0.37,VWS V14.00,2013-11-06 12:38:00,
2013-11-06 06:43:00,42.5,39.5,30.14,NNE,26,4.0,11.0,89,0.00,,---,0.37,VWS V14.00,2013-11-06 12:43:00,
2013-11-06 06:48:00,42.6,39.6,30.14,NNW,347,1.0,3.0,89,0.00,,---,0.37,VWS V14.00,2013-11-06 12:48:00,
2013-11-06 06:54:00,42.7,39.7,30.14,North,349,2.0,4.0,89,0.00,,---,0.37,VWS V14.00,2013-11-06 12:54:00,
2013-11-06 06:59:00,42.6,39.6,30.15,NNW,340,3.0,4.0,89,0.00,,---,0.37,VWS V14.00,2013-11-06 12:59:00,
2013-11-06 07:04:00,42.6,39.6,30.15,NE,50,5.0,5.0,89,0.00,,---,0.37,VWS V14.00,2013-11-06 13:04:00,
2013-11-06 07:09:00,42.5,39.2,30.15,NE,41,3.0,6.0,88,0.00,,---,0.37,VWS V14.00,2013-11-06 13:09:00,
2013-11-06 07:14:00,42.5,39.5,30.16,NNE,25,2.0,4.0,89,0.00,,---,0.37,VWS V14.00,2013-11-06 13:14:00,
2013-11-06 07:19:00,42.4,39.1,30.16,NNE,13,0.0,6.0,88,0.00,,---,0.37,VWS V14.00,2013-11-06 13:19:00,
2013-11-06 07:24:00,42.3,38.7,30.16,NNE,30,2.0,4.0,87,0.00,,---,0.37,VWS V14.00,2013-11-06 13:24:00,
2013-11-06 07:29:00,42.3,38.7,30.17,North,0,3.0,9.0,87,0.00,,---,0.37,VWS V14.00,2013-11-06 13:29:00,
2013-11-06 07:34:00,42.2,38.6,30.17,NNE,12,6.0,11.0,87,0.00,,---,0.37,VWS V14.00,2013-11-06 13:34:00,
2013-11-06 07:39:00,42.1,38.5,30.17,NE,43,2.0,6.0,87,0.00,,---,0.37,VWS V14.00,2013-11-06 13:39:00,
2013-11-06 07:44:00,42.2,38.6,30.18,NE,36,4.0,9.0,87,0.00,,---,0.37,VWS V14.00,2013-11-06 13:44:00,
2013-11-06 07:49:00,42.2,38.6,30.18,NE,37,4.0,6.0,87,0.00,,---,0.37,VWS V14.00,2013-11-06 13:49:00,
2013-11-06 07:54:00,42.3,38.7,30.18,NE,35,3.0,11.0,87,0.00,,---,0.37,VWS V14.00,2013-11-06 13:54:00,
2013-11-06 07:59:00,42.2,38.6,30.18,NE,51,2.0,11.0,87,0.00,,---,0.37,VWS V14.00,2013-11-06 13:59:00,
2013-11-06 08:04:00,42.1,38.2,30.18,NNE,20,11.0,11.0,86,0.00,,---,0.37,VWS V14.00,2013-11-06 14:04:00,
2013-11-06 08:09:00,42.0,38.1,30.18,NE,37,6.0,6.0,86,0.00,,---,0.37,VWS V14.00,2013-11-06 14:09:00,
2013-11-06 08:14:00,42.1,38.5,30.19,NNE,19,3.0,5.0,87,0.00,,---,0.37,VWS V14.00,2013-11-06 14:14:00,
2013-11-06 08:19:00,42.1,38.2,30.19,NE,46,4.0,9.0,86,0.00,,---,0.37,VWS V14.00,2013-11-06 14:19:00,
2013-11-06 08:24:00,42.2,38.3,30.19,West,273,2.0,7.0,86,0.00,,---,0.37,VWS V14.00,2013-11-06 14:24:00,
2013-11-06 08:29:00,42.2,38.3,30.20,ENE,58,7.0,10.0,86,0.00,,---,0.37,VWS V14.00,2013-11-06 14:29:00,
2013-11-06 08:34:00,42.2,38.0,30.20,ENE,68,2.0,7.0,85,0.00,,---,0.37,VWS V14.00,2013-11-06 14:34:00,
2013-11-06 08:39:00,42.3,38.1,30.20,NNE,15,14.0,14.0,85,0.00,,---,0.37,VWS V14.00,2013-11-06 14:39:00,
2013-11-06 08:44:00,42.4,38.2,30.20,NNE,33,0.0,0.0,85,0.00,,---,0.37,VWS V14.00,2013-11-06 14:44:00,
2013-11-06 08:49:00,42.5,38.3,30.20,NNE,15,2.0,6.0,85,0.00,,---,0.37,VWS V14.00,2013-11-06 14:49:00,
2013-11-06 08:54:00,42.7,38.8,30.20,ENE,65,6.0,8.0,86,0.00,,---,0.37,VWS V14.00,2013-11-06 14:54:00,
2013-11-06 08:59:00,42.8,38.6,30.21,NE,46,4.0,7.0,85,0.00,,---,0.37,VWS V14.00,2013-11-06 14:59:00,
2013-11-06 09:04:00,42.8,38.6,30.21,NE,52,5.0,7.0,85,0.00,,---,0.37,VWS V14.00,2013-11-06 15:04:00,
2013-11-06 09:09:00,42.8,38.6,30.21,NNE,15,2.0,2.0,85,0.00,,---,0.37,VWS V14.00,2013-11-06 15:09:00,
2013-11-06 09:14:00,42.8,38.6,30.21,NNE,18,2.0,7.0,85,0.00,,---,0.37,VWS V14.00,2013-11-06 15:14:00,
2013-11-06 09:19:00,42.9,38.7,30.21,North,359,4.0,10.0,85,0.00,,---,0.37,VWS V14.00,2013-11-06 15:19:00,
2013-11-06 09:24:00,42.8,38.3,30.21,NE,40,5.0,7.0,84,0.00,,---,0.37,VWS V14.00,2013-11-06 15:24:00,
2013-11-06 09:29:00,42.8,38.3,30.23,NE,43,5.0,6.0,84,0.00,,---,0.37,VWS V14.00,2013-11-06 15:29:00,
2013-11-06 09:34:00,42.8,38.3,30.23,NNE,24,6.0,13.0,84,0.00,,---,0.37,VWS V14.00,2013-11-06 15:34:00,
2013-11-06 09:40:00,42.9,37.8,30.23,North,2,16.0,16.0,82,0.00,,---,0.37,VWS V14.00,2013-11-06 15:40:00,
2013-11-06 09:45:00,42.9,37.8,30.23,ENE,59,5.0,11.0,82,0.00,,---,0.37,VWS V14.00,2013-11-06 15:45:00,
2013-11-06 09:50:00,43.6,38.2,30.23,NNE,22,5.0,14.0,81,0.00,,---,0.37,VWS V14.00,2013-11-06 15:50:00,
2013-11-06 09:55:00,43.9,38.1,30.23,NE,46,7.0,11.0,80,0.00,,---,0.37,VWS V14.00,2013-11-06 15:55:00,
2013-11-06 10:00:00,44.2,38.4,30.22,WNW,300,4.0,10.0,80,0.00,,---,0.37,VWS V14.00,2013-11-06 16:00:00,
2013-11-06 10:05:00,44.1,38.3,30.22,NNE,33,2.0,13.0,80,0.00,,---,0.37,VWS V14.00,2013-11-06 16:05:00,
2013-11-06 10:10:00,44.1,38.7,30.22,North,2,2.0,4.0,81,0.00,,---,0.37,VWS V14.00,2013-11-06 16:10:00,
2013-11-06 10:15:00,44.2,38.1,30.24,West,281,1.0,6.0,79,0.00,,---,0.37,VWS V14.00,2013-11-06 16:15:00,
2013-11-06 10:20:00,44.0,37.9,30.24,NE,44,2.0,11.0,79,0.00,,---,0.37,VWS V14.00,2013-11-06 16:20:00,
2013-11-06 10:25:00,43.9,37.8,30.24,NE,52,10.0,11.0,79,0.00,,---,0.37,VWS V14.00,2013-11-06 16:25:00,
2013-11-06 10:30:00,44.0,37.9,30.24,NNE,23,6.0,11.0,79,0.00,,---,0.37,VWS V14.00,2013-11-06 16:30:00,
2013-11-06 10:35:00,44.2,38.1,30.24,NNE,13,7.0,16.0,79,0.00,,---,0.37,VWS V14.00,2013-11-06 16:35:00,
2013-11-06 10:40:00,44.9,38.1,30.24,NNE,29,3.0,12.0,77,0.00,,---,0.37,VWS V14.00,2013-11-06 16:40:00,
2013-11-06 10:45:00,45.7,38.6,30.24,NE,37,6.0,10.0,76,0.00,,---,0.37,VWS V14.00,2013-11-06 16:45:00,
2013-11-06 10:51:00,45.7,38.2,30.24,NNE,27,7.0,15.0,75,0.00,,---,0.37,VWS V14.00,2013-11-06 16:51:00,
2013-11-06 10:57:00,44.8,37.7,30.24,NNE,27,7.0,14.0,76,0.00,,---,0.37,VWS V14.00,2013-11-06 16:57:00,
2013-11-06 11:02:00,44.7,37.9,30.24,NE,39,4.0,7.0,77,0.00,,---,0.37,VWS V14.00,2013-11-06 17:02:00,
2013-11-06 11:07:00,45.3,38.9,30.24,ENE,65,3.0,10.0,78,0.00,,---,0.37,VWS V14.00,2013-11-06 17:07:00,
2013-11-06 11:12:00,45.4,38.3,30.24,NNE,23,8.0,8.0,76,0.00,,---,0.37,VWS V14.00,2013-11-06 17:12:00,
2013-11-06 11:17:00,45.4,38.3,30.24,ENE,58,0.0,11.0,76,0.00,,---,0.37,VWS V14.00,2013-11-06 17:17:00,
2013-11-06 11:22:00,45.6,38.8,30.24,WNW,301,0.0,1.0,77,0.00,,---,0.37,VWS V14.00,2013-11-06 17:22:00,
2013-11-06 11:27:00,45.8,38.3,30.24,NNE,19,5.0,15.0,75,0.00,,---,0.37,VWS V14.00,2013-11-06 17:27:00,
2013-11-06 11:32:00,45.7,38.2,30.24,West,273,0.0,10.0,75,0.00,,---,0.37,VWS V14.00,2013-11-06 17:32:00,
2013-11-06 11:37:00,45.9,38.4,30.24,NNE,32,4.0,10.0,75,0.00,,---,0.37,VWS V14.00,2013-11-06 17:37:00,
2013-11-06 11:42:00,46.0,38.5,30.24,NE,34,3.0,9.0,75,0.00,,---,0.37,VWS V14.00,2013-11-06 17:42:00,
2013-11-06 11:47:00,46.3,39.2,30.24,NE,36,0.0,4.0,76,0.00,,---,0.37,VWS V14.00,2013-11-06 17:47:00,
2013-11-06 11:52:00,46.8,39.3,30.24,NW,304,0.0,5.0,75,0.00,,---,0.37,VWS V14.00,2013-11-06 17:52:00,
2013-11-06 11:57:00,47.2,40.0,30.24,WNW,295,0.0,0.0,76,0.00,,---,0.37,VWS V14.00,2013-11-06 17:57:00,
2013-11-06 12:02:00,47.3,39.5,30.24,NE,48,0.0,2.0,74,0.00,,---,0.37,VWS V14.00,2013-11-06 18:02:00,
2013-11-06 12:07:00,48.0,39.4,30.24,NNE,23,3.0,7.0,72,0.00,,---,0.37,VWS V14.00,2013-11-06 18:07:00,
2013-11-06 12:12:00,48.1,39.5,30.24,NNE,33,6.0,10.0,72,0.00,,---,0.37,VWS V14.00,2013-11-06 18:12:00,
2013-11-06 12:17:00,48.2,39.6,30.24,NNE,33,6.0,7.0,72,0.00,,---,0.37,VWS V14.00,2013-11-06 18:17:00,
2013-11-06 12:22:00,48.4,39.8,30.24,NNE,29,3.0,4.0,72,0.00,,---,0.37,VWS V14.00,2013-11-06 18:22:00,
2013-11-06 12:28:00,48.8,40.5,30.24,NE,37,0.0,1.0,73,0.00,,---,0.37,VWS V14.00,2013-11-06 18:28:00,
2013-11-06 12:33:00,49.4,40.4,30.24,WNW,288,0.0,1.0,71,0.00,,---,0.37,VWS V14.00,2013-11-06 18:33:00,
2013-11-06 12:38:00,49.7,41.8,30.24,North,357,0.0,1.0,74,0.00,,---,0.37,VWS V14.00,2013-11-06 18:38:00,
2013-11-06 12:43:00,49.0,39.3,30.24,NE,41,3.0,6.0,69,0.00,,---,0.37,VWS V14.00,2013-11-06 18:43:00,
2013-11-06 12:48:00,49.1,39.8,30.24,North,8,0.0,1.0,70,0.00,,---,0.37,VWS V14.00,2013-11-06 18:48:00,
2013-11-06 12:53:00,48.9,39.6,30.24,NNE,22,9.0,9.0,70,0.00,,---,0.37,VWS V14.00,2013-11-06 18:53:00,
2013-11-06 12:58:00,49.3,39.6,30.24,NNE,25,4.0,5.0,69,0.00,,---,0.37,VWS V14.00,2013-11-06 18:58:00,
2013-11-06 13:04:00,48.7,39.4,30.24,NE,56,1.0,7.0,70,0.00,,---,0.37,VWS V14.00,2013-11-06 19:04:00,
2013-11-06 13:09:00,49.3,40.3,30.24,WSW,257,0.0,1.0,71,0.00,,---,0.37,VWS V14.00,2013-11-06 19:09:00,
2013-11-06 13:14:00,49.7,40.3,30.24,NNW,334,0.0,1.0,70,0.00,,---,0.37,VWS V14.00,2013-11-06 19:14:00,
2013-11-06 13:19:00,49.4,40.0,30.24,NW,311,0.0,1.0,70,0.00,,---,0.37,VWS V14.00,2013-11-06 19:19:00,
2013-11-06 13:24:00,49.4,38.9,30.24,NE,39,4.0,11.0,67,0.00,,---,0.37,VWS V14.00,2013-11-06 19:24:00,
2013-11-06 13:29:00,49.6,39.9,30.24,NNE,28,0.0,5.0,69,0.00,,---,0.37,VWS V14.00,2013-11-06 19:29:00,
2013-11-06 13:34:00,50.3,40.2,30.24,North,8,3.0,7.0,68,0.00,,---,0.37,VWS V14.00,2013-11-06 19:34:00,
2013-11-06 13:39:00,50.9,39.6,30.24,NNE,33,4.0,5.0,65,0.00,,---,0.37,VWS V14.00,2013-11-06 19:39:00,
2013-11-06 13:44:00,50.2,38.9,30.24,NNE,32,5.0,9.0,65,0.00,,---,0.37,VWS V14.00,2013-11-06 19:44:00,
2013-11-06 13:49:00,50.4,39.5,30.24,NE,34,2.0,4.0,66,0.00,,---,0.37,VWS V14.00,2013-11-06 19:49:00,
2013-11-06 13:54:00,50.5,38.8,30.24,NNE,16,6.0,11.0,64,0.00,,---,0.37,VWS V14.00,2013-11-06 19:54:00,
2013-11-06 13:59:00,50.0,38.7,30.24,NNE,21,4.0,6.0,65,0.00,,---,0.37,VWS V14.00,2013-11-06 19:59:00,
2013-11-06 14:04:00,50.0,39.1,30.24,North,1,6.0,9.0,66,0.00,,---,0.37,VWS V14.00,2013-11-06 20:04:00,
2013-11-06 14:09:00,50.3,39.4,30.24,NNW,329,0.0,6.0,66,0.00,,---,0.37,VWS V14.00,2013-11-06 20:09:00,
2013-11-06 14:14:00,51.1,39.8,30.24,NE,35,0.0,1.0,65,0.00,,---,0.37,VWS V14.00,2013-11-06 20:14:00,
2013-11-06 14:19:00,50.7,39.0,30.24,NE,45,7.0,7.0,64,0.00,,---,0.37,VWS V14.00,2013-11-06 20:19:00,
2013-11-06 14:24:00,50.6,38.9,30.24,NNE,29,10.0,11.0,64,0.00,,---,0.37,VWS V14.00,2013-11-06 20:24:00,
2013-11-06 14:29:00,51.0,39.3,30.25,NE,42,13.0,13.0,64,0.00,,---,0.37,VWS V14.00,2013-11-06 20:29:00,
2013-11-06 14:34:00,50.9,39.6,30.25,NE,49,7.0,7.0,65,0.00,,---,0.37,VWS V14.00,2013-11-06 20:34:00,
2013-11-06 14:39:00,51.1,38.5,30.25,NE,41,3.0,5.0,62,0.00,,---,0.37,VWS V14.00,2013-11-06 20:39:00,
2013-11-06 14:44:00,50.9,38.0,30.25,NE,34,6.0,10.0,61,0.00,,---,0.37,VWS V14.00,2013-11-06 20:44:00,
2013-11-06 14:49:00,51.5,38.9,30.25,NE,40,0.0,5.0,62,0.00,,---,0.37,VWS V14.00,2013-11-06 20:49:00,
2013-11-06 14:54:00,52.0,39.0,30.25,NNE,27,2.0,7.0,61,0.00,,---,0.37,VWS V14.00,2013-11-06 20:54:00,
2013-11-06 14:59:00,51.5,38.5,30.25,NE,54,1.0,1.0,61,0.00,,---,0.37,VWS V14.00,2013-11-06 20:59:00,
2013-11-06 15:04:00,51.8,38.8,30.25,NE,48,7.0,14.0,61,0.00,,---,0.37,VWS V14.00,2013-11-06 21:04:00,
2013-11-06 15:09:00,51.8,38.4,30.25,NE,53,5.0,5.0,60,0.00,,---,0.37,VWS V14.00,2013-11-06 21:09:00,
2013-11-06 15:14:00,51.8,38.4,30.25,NE,41,4.0,11.0,60,0.00,,---,0.37,VWS V14.00,2013-11-06 21:14:00,
2013-11-06 15:19:00,51.2,37.8,30.25,NE,41,2.0,8.0,60,0.00,,---,0.37,VWS V14.00,2013-11-06 21:19:00,
2013-11-06 15:24:00,51.9,38.9,30.25,NE,46,1.0,1.0,61,0.00,,---,0.37,VWS V14.00,2013-11-06 21:24:00,
2013-11-06 15:29:00,51.8,37.9,30.26,NNE,13,0.0,4.0,59,0.00,,---,0.37,VWS V14.00,2013-11-06 21:29:00,
2013-11-06 15:34:00,51.5,38.1,30.26,ENE,59,3.0,7.0,60,0.00,,---,0.37,VWS V14.00,2013-11-06 21:34:00,
2013-11-06 15:40:00,51.6,38.2,30.26,NE,46,9.0,9.0,60,0.00,,---,0.37,VWS V14.00,2013-11-06 21:40:00,
2013-11-06 15:45:00,51.3,37.9,30.26,NE,34,5.0,10.0,60,0.00,,---,0.37,VWS V14.00,2013-11-06 21:45:00,
2013-11-06 15:50:00,51.7,38.3,30.26,NNE,25,1.0,6.0,60,0.00,,---,0.37,VWS V14.00,2013-11-06 21:50:00,
2013-11-06 15:55:00,52.2,38.3,30.26,NNE,32,0.0,5.0,59,0.00,,---,0.37,VWS V14.00,2013-11-06 21:55:00,
2013-11-06 16:00:00,52.8,38.5,30.26,NNE,28,0.0,2.0,58,0.00,,---,0.37,VWS V14.00,2013-11-06 22:00:00,
2013-11-06 16:05:00,51.9,37.2,30.26,NNE,23,0.0,5.0,57,0.00,,---,0.37,VWS V14.00,2013-11-06 22:05:00,
2013-11-06 16:11:00,51.5,37.2,30.26,NE,39,3.0,6.0,58,0.00,,---,0.37,VWS V14.00,2013-11-06 22:11:00,
2013-11-06 16:16:00,51.8,38.4,30.26,NNE,25,0.0,1.0,60,0.00,,---,0.37,VWS V14.00,2013-11-06 22:16:00,
2013-11-06 16:21:00,52.1,38.2,30.26,North,1,0.0,1.0,59,0.00,,---,0.37,VWS V14.00,2013-11-06 22:21:00,
2013-11-06 16:26:00,51.6,37.8,30.26,NE,47,0.0,0.0,59,0.00,,---,0.37,VWS V14.00,2013-11-06 22:26:00,
2013-11-06 16:31:00,52.1,38.2,30.26,NNW,335,0.0,1.0,59,0.00,,---,0.37,VWS V14.00,2013-11-06 22:31:00,
2013-11-06 16:36:00,51.7,37.4,30.26,NNE,27,0.0,1.0,58,0.00,,---,0.37,VWS V14.00,2013-11-06 22:36:00,
2013-11-06 16:41:00,51.0,36.8,30.26,NE,40,3.0,9.0,58,0.00,,---,0.37,VWS V14.00,2013-11-06 22:41:00,
2013-11-06 16:46:00,50.7,36.9,30.26,NNE,28,1.0,2.0,59,0.00,,---,0.37,VWS V14.00,2013-11-06 22:46:00,
2013-11-06 16:51:00,50.5,37.2,30.26,NE,34,0.0,4.0,60,0.00,,---,0.37,VWS V14.00,2013-11-06 22:51:00,
2013-11-06 16:56:00,50.4,37.9,30.26,NE,44,4.0,4.0,62,0.00,,---,0.37,VWS V14.00,2013-11-06 22:56:00,
2013-11-06 17:01:00,50.2,38.1,30.26,NNE,13,2.0,3.0,63,0.00,,---,0.37,VWS V14.00,2013-11-06 23:01:00,
2013-11-06 17:06:00,49.9,38.2,30.26,NE,53,0.0,2.0,64,0.00,,---,0.37,VWS V14.00,2013-11-06 23:06:00,
2013-11-06 17:11:00,49.6,37.9,30.26,NE,43,0.0,2.0,64,0.00,,---,0.37,VWS V14.00,2013-11-06 23:11:00,
2013-11-06 17:16:00,49.3,37.7,30.27,NE,43,0.0,0.0,64,0.00,,---,0.37,VWS V14.00,2013-11-06 23:16:00,
2013-11-06 17:21:00,49.1,37.5,30.27,NNE,30,0.0,3.0,64,0.00,,---,0.37,VWS V14.00,2013-11-06 23:21:00,
2013-11-06 17:26:00,49.0,37.8,30.27,NNE,30,0.0,0.0,65,0.00,,---,0.37,VWS V14.00,2013-11-06 23:26:00,
2013-11-06 17:31:00,48.8,38.0,30.27,NNE,30,0.0,3.0,66,0.00,,---,0.37,VWS V14.00,2013-11-06 23:31:00,
2013-11-06 17:36:00,48.7,38.6,30.27,NNE,30,3.0,3.0,68,0.00,,---,0.37,VWS V14.00,2013-11-06 23:36:00,
2013-11-06 17:41:00,48.5,37.7,30.27,NNE,30,0.0,1.0,66,0.00,,---,0.37,VWS V14.00,2013-11-06 23:41:00,
2013-11-06 17:46:00,48.2,37.8,30.28,NNE,30,0.0,0.0,67,0.00,,---,0.37,VWS V14.00,2013-11-06 23:46:00,
2013-11-06 17:51:00,48.0,37.6,30.28,NNE,30,0.0,0.0,67,0.00,,---,0.37,VWS V14.00,2013-11-06 23:51:00,
2013-11-06 17:56:00,47.7,37.7,30.28,NNE,30,0.0,0.0,68,0.00,,---,0.37,VWS V14.00,2013-11-06 23:56:00,
2013-11-06 18:01:00,47.5,38.2,30.29,NNE,30,0.0,0.0,70,0.00,,---,0.37,VWS V14.00,2013-11-07 00:01:00,
2013-11-06 18:06:00,47.4,38.5,30.29,NNE,30,0.0,0.0,71,0.00,,---,0.37,VWS V14.00,2013-11-07 00:06:00,
2013-11-06 18:11:00,47.3,38.4,30.29,NNE,30,0.0,0.0,71,0.00,,---,0.37,VWS V14.00,2013-11-07 00:11:00,
2013-11-06 18:16:00,47.1,38.5,30.29,NNE,30,0.0,0.0,72,0.00,,---,0.37,VWS V14.00,2013-11-07 00:16:00,
2013-11-06 18:21:00,46.9,38.4,30.29,NNE,30,0.0,0.0,72,0.00,,---,0.37,VWS V14.00,2013-11-07 00:21:00,
2013-11-06 18:26:00,46.7,38.5,30.29,NNE,30,0.0,0.0,73,0.00,,---,0.37,VWS V14.00,2013-11-07 00:26:00,
2013-11-06 18:31:00,46.4,38.6,30.29,NNE,30,0.0,0.0,74,0.00,,---,0.37,VWS V14.00,2013-11-07 00:31:00,
2013-11-06 18:36:00,46.2,38.4,30.29,NNE,30,0.0,0.0,74,0.00,,---,0.37,VWS V14.00,2013-11-07 00:36:00,
2013-11-06 18:41:00,46.0,38.9,30.29,NNE,30,0.0,0.0,76,0.00,,---,0.37,VWS V14.00,2013-11-07 00:41:00,
2013-11-06 18:46:00,45.9,39.4,30.29,NNE,30,0.0,0.0,78,0.00,,---,0.37,VWS V14.00,2013-11-07 00:46:00,
2013-11-06 18:51:00,45.9,39.1,30.29,NNE,30,0.0,0.0,77,0.00,,---,0.37,VWS V14.00,2013-11-07 00:51:00,
2013-11-06 18:56:00,45.5,38.7,30.29,NNE,30,0.0,0.0,77,0.00,,---,0.37,VWS V14.00,2013-11-07 00:56:00,
2013-11-06 19:02:00,44.9,38.5,30.30,NNE,30,0.0,0.0,78,0.00,,---,0.37,VWS V14.00,2013-11-07 01:02:00,
2013-11-06 19:07:00,44.7,38.9,30.30,NNE,30,0.0,0.0,80,0.00,,---,0.37,VWS V14.00,2013-11-07 01:07:00,
2013-11-06 19:12:00,44.5,38.7,30.30,NNE,30,0.0,0.0,80,0.00,,---,0.37,VWS V14.00,2013-11-07 01:12:00,
2013-11-06 19:17:00,44.2,38.8,30.30,NNE,30,0.0,0.0,81,0.00,,---,0.37,VWS V14.00,2013-11-07 01:17:00,
2013-11-06 19:22:00,43.8,38.4,30.30,NNE,30,0.0,0.0,81,0.00,,---,0.37,VWS V14.00,2013-11-07 01:22:00,
2013-11-06 19:28:00,43.4,38.3,30.31,NNE,30,0.0,0.0,82,0.00,,---,0.37,VWS V14.00,2013-11-07 01:28:00,
2013-11-06 19:33:00,43.2,38.4,30.31,NNE,30,0.0,0.0,83,0.00,,---,0.37,VWS V14.00,2013-11-07 01:33:00,
2013-11-06 19:38:00,42.9,38.1,30.31,NNE,30,0.0,0.0,83,0.00,,---,0.37,VWS V14.00,2013-11-07 01:38:00,
2013-11-06 19:43:00,42.6,38.1,30.31,NNE,30,0.0,0.0,84,0.00,,---,0.37,VWS V14.00,2013-11-07 01:43:00,
2013-11-06 19:48:00,42.4,38.2,30.31,NNE,30,0.0,0.0,85,0.00,,---,0.37,VWS V14.00,2013-11-07 01:48:00,
2013-11-06 19:53:00,42.2,38.0,30.31,NNE,30,0.0,0.0,85,0.00,,---,0.37,VWS V14.00,2013-11-07 01:53:00,
2013-11-06 19:58:00,41.9,37.7,30.31,NNE,30,0.0,0.0,85,0.00,,---,0.37,VWS V14.00,2013-11-07 01:58:00,
2013-11-06 20:03:00,41.8,37.9,30.31,NNE,30,0.0,0.0,86,0.00,,---,0.37,VWS V14.00,2013-11-07 02:03:00,
2013-11-06 20:08:00,41.6,37.7,30.31,NNE,30,0.0,0.0,86,0.00,,---,0.37,VWS V14.00,2013-11-07 02:08:00,
2013-11-06 20:13:00,41.5,37.9,30.32,NNE,30,0.0,0.0,87,0.00,,---,0.37,VWS V14.00,2013-11-07 02:13:00,
2013-11-06 20:18:00,41.3,37.7,30.32,NNE,30,0.0,0.0,87,0.00,,---,0.37,VWS V14.00,2013-11-07 02:18:00,
2013-11-06 20:23:00,41.1,37.8,30.32,NNE,30,0.0,0.0,88,0.00,,---,0.37,VWS V14.00,2013-11-07 02:23:00,
2013-11-06 20:28:00,41.1,37.8,30.32,NNE,30,0.0,0.0,88,0.00,,---,0.37,VWS V14.00,2013-11-07 02:28:00,
2013-11-06 20:33:00,41.0,37.7,30.32,NNE,30,0.0,0.0,88,0.00,,---,0.37,VWS V14.00,2013-11-07 02:33:00,
2013-11-06 20:38:00,41.0,37.7,30.32,NNE,30,0.0,0.0,88,0.00,,---,0.37,VWS V14.00,2013-11-07 02:38:00,
2013-11-06 20:43:00,40.9,37.9,30.32,NNE,30,0.0,0.0,89,0.00,,---,0.37,VWS V14.00,2013-11-07 02:43:00,
2013-11-06 20:48:00,40.8,37.8,30.32,NNE,30,0.0,0.0,89,0.00,,---,0.37,VWS V14.00,2013-11-07 02:48:00,
2013-11-06 20:53:00,40.7,37.7,30.32,NNE,30,0.0,0.0,89,0.00,,---,0.37,VWS V14.00,2013-11-07 02:53:00,
2013-11-06 20:58:00,40.6,37.6,30.33,NNE,30,0.0,0.0,89,0.00,,---,0.37,VWS V14.00,2013-11-07 02:58:00,
2013-11-06 21:03:00,40.4,37.4,30.33,NNE,30,0.0,0.0,89,0.00,,---,0.37,VWS V14.00,2013-11-07 03:03:00,
2013-11-06 21:08:00,40.3,37.3,30.33,NNE,30,0.0,0.0,89,0.00,,---,0.37,VWS V14.00,2013-11-07 03:08:00,
2013-11-06 21:13:00,40.1,37.4,30.33,NNE,30,0.0,0.0,90,0.00,,---,0.37,VWS V14.00,2013-11-07 03:13:00,
2013-11-06 21:18:00,40.0,37.3,30.33,NNE,30,0.0,0.0,90,0.00,,---,0.37,VWS V14.00,2013-11-07 03:18:00,
2013-11-06 21:23:00,39.9,37.2,30.33,NNE,30,0.0,0.0,90,0.00,,---,0.37,VWS V14.00,2013-11-07 03:23:00,
2013-11-06 21:28:00,39.8,37.1,30.34,NNE,30,0.0,0.0,90,0.00,,---,0.37,VWS V14.00,2013-11-07 03:28:00,
2013-11-06 21:33:00,39.8,37.4,30.34,NNE,30,0.0,0.0,91,0.00,,---,0.37,VWS V14.00,2013-11-07 03:33:00,
2013-11-06 21:38:00,39.8,37.4,30.34,NNE,30,0.0,0.0,91,0.00,,---,0.37,VWS V14.00,2013-11-07 03:38:00,
2013-11-06 21:43:00,39.8,37.4,30.34,NNE,30,0.0,0.0,91,0.00,,---,0.37,VWS V14.00,2013-11-07 03:43:00,
2013-11-06 21:48:00,39.7,37.3,30.34,NNE,30,0.0,0.0,91,0.00,,---,0.37,VWS V14.00,2013-11-07 03:48:00,
2013-11-06 21:53:00,39.6,37.2,30.34,NNE,30,0.0,0.0,91,0.00,,---,0.37,VWS V14.00,2013-11-07 03:53:00,
2013-11-06 21:58:00,39.5,37.1,30.35,NNE,30,0.0,0.0,91,0.00,,---,0.37,VWS V14.00,2013-11-07 03:58:00,
2013-11-06 22:03:00,39.3,36.9,30.35,NNE,30,0.0,0.0,91,0.00,,---,0.37,VWS V14.00,2013-11-07 04:03:00,
2013-11-06 22:08:00,39.1,36.7,30.35,NNE,30,0.0,0.0,91,0.00,,---,0.37,VWS V14.00,2013-11-07 04:08:00,
2013-11-06 22:13:00,38.9,36.5,30.35,NNE,30,0.0,0.0,91,0.00,,---,0.37,VWS V14.00,2013-11-07 04:13:00,
2013-11-06 22:18:00,38.9,36.5,30.35,NNE,30,0.0,0.0,91,0.00,,---,0.37,VWS V14.00,2013-11-07 04:18:00,
2013-11-06 22:23:00,38.8,36.7,30.35,NNE,30,0.0,0.0,92,0.00,,---,0.37,VWS V14.00,2013-11-07 04:23:00,
2013-11-06 22:28:00,38.7,36.6,30.35,NNE,30,0.0,0.0,92,0.00,,---,0.37,VWS V14.00,2013-11-07 04:28:00,
2013-11-06 22:33:00,39.0,36.9,30.35,NNE,30,0.0,0.0,92,0.00,,---,0.37,VWS V14.00,2013-11-07 04:33:00,
2013-11-06 22:38:00,38.9,36.8,30.35,NNE,30,0.0,0.0,92,0.00,,---,0.37,VWS V14.00,2013-11-07 04:38:00,
2013-11-06 22:43:00,38.9,36.8,30.35,NNE,30,0.0,0.0,92,0.00,,---,0.37,VWS V14.00,2013-11-07 04:43:00,
2013-11-06 22:48:00,39.1,37.2,30.35,NNE,30,0.0,0.0,93,0.00,,---,0.37,VWS V14.00,2013-11-07 04:48:00,
2013-11-06 22:53:00,39.1,37.2,30.35,NNE,30,0.0,0.0,93,0.00,,---,0.37,VWS V14.00,2013-11-07 04:53:00,
2013-11-06 22:58:00,39.0,36.9,30.35,NNE,30,0.0,0.0,92,0.00,,---,0.00,VWS V14.00,2013-11-07 04:58:00,
2013-11-06 23:01:00,38.9,36.8,30.35,NNE,30,0.0,0.0,92,0.00,,---,0.00,VWS V14.00,2013-11-07 05:01:00,
2013-11-06 23:03:00,38.8,36.7,30.35,NNE,30,0.0,0.0,92,0.00,,---,0.00,VWS V14.00,2013-11-07 05:03:00,
2013-11-06 23:04:00,38.8,36.7,30.35,NNE,30,0.0,0.0,92,0.00,,---,0.00,VWS V14.00,2013-11-07 05:04:00,
2013-11-06 23:08:00,38.6,36.5,30.35,NNE,30,0.0,0.0,92,0.00,,---,0.00,VWS V14.00,2013-11-07 05:08:00,
2013-11-06 23:10:00,38.6,36.5,30.35,NNE,30,0.0,0.0,92,0.00,,---,0.00,VWS V14.00,2013-11-07 05:10:00,
2013-11-06 23:11:00,38.6,36.5,30.35,NNE,30,0.0,0.0,92,0.00,,---,0.00,VWS V14.00,2013-11-07 05:11:00,
2013-11-06 23:14:00,38.5,36.7,30.35,NNE,30,0.0,0.0,93,0.00,,---,0.00,VWS V14.00,2013-11-07 05:14:00,
2013-11-06 23:20:00,38.2,36.1,30.35,NNE,30,0.0,0.0,92,0.00,,---,0.00,VWS V14.00,2013-11-07 05:20:00,
2013-11-06 23:25:00,38.2,36.4,30.35,NNE,30,0.0,0.0,93,0.00,,---,0.00,VWS V14.00,2013-11-07 05:25:00,
2013-11-06 23:31:00,38.0,36.2,30.34,NNE,30,0.0,0.0,93,0.00,,---,0.00,VWS V14.00,2013-11-07 05:31:00,
2013-11-06 23:36:00,38.0,36.2,30.34,NNE,30,0.0,0.0,93,0.00,,---,0.00,VWS V14.00,2013-11-07 05:36:00,
2013-11-06 23:41:00,38.0,36.2,30.34,NNE,30,0.0,0.0,93,0.00,,---,0.00,VWS V14.00,2013-11-07 05:41:00,
2013-11-06 23:46:00,37.9,36.1,30.34,NNE,30,0.0,0.0,93,0.00,,---,0.00,VWS V14.00,2013-11-07 05:46:00,
2013-11-06 23:52:00,37.8,36.0,30.34,NNE,30,0.0,0.0,93,0.00,,---,0.00,VWS V14.00,2013-11-07 05:52:00,
2013-11-06 23:57:00,37.7,35.9,30.34,NNE,30,0.0,0.0,93,0.00,,---,0.00,VWS V14.00,2013-11-07 05:57:00,